GUSTAVUS current weather conditions

sailwx.info

Wind from 110 at 5 knots

Air temperature 6.1° C
Visibility: greater than 8.7 NM
Dewpoint 5.6° C
Present weather: Light rain.

Last reported at 2018-Apr-26 15:56 UTC.
Time now 2018-Apr-26 17:14 UTC

Location: N 58°25' W 135°43'.
View on Google Maps.

See reports from other nearby stations

  
Tides and Currents Weather Stations Pressure Air Temp Water Temp Dewpoint Dewpoint Depression Visibility Wind Speed Wind Dir Waves Ship Positions
date/time (UTC)wind fromknots sea level pressurealtimeterstation pressurevisibilityair tempwater tempwave heightnotes
2018-Apr-26 15:56 110 5 8.7 6.1 Light rain.
2018-Apr-26 15:48 110 6 8.7 6.0 Light rain.
2018-Apr-26 14:56 130 6 8.7 6.1 Light rain.
2018-Apr-26 13:56 140 5 8.7 5.6 Light rain.
2018-Apr-26 13:41 8.7 6.0 Light rain.
2018-Apr-26 12:56 110 4 8.7 5.6 Light rain.
2018-Apr-26 11:56 7.8 5.6 Light rain.
2018-Apr-26 10:56 110 2 8.7 6.1 Light rain.
2018-Apr-26 10:06 130 5 7.8 6.0 Light rain.
2018-Apr-26 09:56 130 4 8.7 6.1 Light rain.
2018-Apr-26 09:11 110 6 8.7 6.0 Light rain.
2018-Apr-26 08:56 120 9 6.9 6.1 Light rain.
2018-Apr-26 07:56 120 6 8.7 6.7 Light rain.
2018-Apr-26 07:21 130 6 8.7 7.0 Light rain.
2018-Apr-26 06:56 150 6 8.7 7.2 Light rain.
2018-Apr-26 05:56 140 7 8.7 7.8
2018-Apr-26 04:56 140 8 8.7 7.8
2018-Apr-26 03:56 130 8 8.7 7.8
2018-Apr-26 03:03 130 11 8.7 8.0
2018-Apr-26 02:56 130 12 8.7 7.8
2018-Apr-26 01:56 130 11 8.7 8.9
2018-Apr-26 01:30 130 9 8.7 9.0
2018-Apr-26 00:56 140 12 8.7 8.3
2018-Apr-25 23:56 130 13 8.7 8.9
2018-Apr-25 22:56 120 13 8.7 8.9
2018-Apr-25 21:56 120 13 8.7 8.3 Light rain.
2018-Apr-25 20:56 120 12 8.7 7.8
2018-Apr-25 19:56 120 9 gusting 18 8.7 7.2
2018-Apr-25 18:56 130 13 8.7 7.2
2018-Apr-25 17:56 130 12 8.7 6.7
2018-Apr-25 16:56 140 13 8.7 6.1 Light rain.
2018-Apr-25 15:56 130 12 8.7 5.6 Light rain.
2018-Apr-25 14:56 130 8 8.7 5.6 Light rain.
2018-Apr-25 13:56 140 9 8.7 5.6 Light rain.
2018-Apr-25 13:07 130 6 8.7 5.0 Light rain.
2018-Apr-25 12:56 120 5 8.7 5.0 Light rain.
2018-Apr-25 12:26 120 6 8.7 5.0 Light rain.
2018-Apr-25 11:56 130 7 8.7 5.6 Light rain.
2018-Apr-25 10:56 130 9 8.7 5.0
2018-Apr-25 09:56 120 7 8.7 5.0 Light rain.
2018-Apr-25 08:56 120 6 8.7 5.0 Light rain.
2018-Apr-25 08:46 100 6 8.7 5.0 Light rain.
2018-Apr-25 07:56 130 5 8.7 5.0 Light rain.
2018-Apr-25 07:51 140 4 8.7 5.0 Light rain.
2018-Apr-25 06:56 150 2 8.7 5.0 Light rain.
2018-Apr-25 05:56 120 2 8.7 4.4
2018-Apr-25 04:56 100 2 8.7 4.4 Light rain.
2018-Apr-25 04:13 8.7 5.0 Light rain.
2018-Apr-25 03:56 230 5 8.7 5.0 Light rain.
2018-Apr-25 03:48 8.7 6.0 Light rain.
2018-Apr-25 03:03 8.7 6.0 Light rain.
2018-Apr-25 02:56 160 2 8.7 5.6 Light rain.
2018-Apr-25 01:56 180 2 8.7 6.1 Light rain.
2018-Apr-25 00:56 8.7 6.1 Light rain.
2018-Apr-25 00:08 240 2 8.7 7.0 Light rain.
2018-Apr-24 23:56 250 6 8.7 6.7 Light rain.
2018-Apr-24 22:56 250 6 gusting 14 8.7 7.2
2018-Apr-24 22:38 240 6 8.7 7.0
2018-Apr-24 22:13 230 5 4.3 7.0 Light rain. Mist.
2018-Apr-24 21:56 7.8 6.7 Light rain.
2018-Apr-24 21:15 190 6 8.7 7.0 Rain.
2018-Apr-24 20:56 120 8 8.7 7.8 Light rain.
2018-Apr-24 19:56 120 8 8.7 7.8
2018-Apr-24 19:37 110 8 8.7 7.0
2018-Apr-24 18:56 110 7 8.7 6.7
2018-Apr-24 17:56 110 8 8.7 6.1 Light rain.